| time (UTC) | temp C | wind direction | speed KPH | gust KPH | rain 1hr cm | rain 24hr cm | rain mn cm | humidity % | barometer mb |
| 20260502130337 | 37 | 180 | 37.0 | 0.0 | 0.00 | 0.00 | 0.00 | 1014.1 | |
| 20260502122704 | 34 | 315 | 82.1 | 0.0 | 0.00 | 0.00 | 0.00 | 1014.6 | |
| 20260502120847 | 33 | 135 | 107.8 | 0.0 | 0.00 | 0.00 | 0.00 | 1014.9 | |
| 20260502115031 | 33 | 180 | 56.3 | 0.0 | 0.00 | 0.00 | 0.00 | 1012.6 | |
| 20260502113214 | 31 | 0 | 111.0 | 0.0 | 0.00 | 0.00 | 0.00 | 1015.2 | |
| 20260502111357 | 30 | 135 | 32.2 | 0.0 | 0.00 | 0.00 | 0.00 | 1015.6 | |
| 20260502105541 | 30 | 0 | 107.8 | 0.0 | 0.00 | 0.00 | 0.00 | 1015.6 | |
| 20260502103724 | 31 | 0 | 32.2 | 0.0 | 0.00 | 0.00 | 0.00 | 1015.9 | |
| 20260502101908 | 30 | 90 | 74.0 | 0.0 | 0.00 | 0.00 | 0.00 | 1016.0 | |
| 20260502090601 | 25 | 270 | 20.9 | 0.0 | 0.00 | 0.00 | 0.00 | 1017.0 | |
| 20260502065818 | 15 | 0 | 22.5 | 0.0 | 0.00 | 0.00 | 0.00 | 1017.8 | |
| 20260502064001 | 14 | 222 | 0.0 | 0.0 | 0.00 | 0.00 | 0.00 | 1017.9 | |
| 20260502062144 | 12 | 180 | 0.0 | 0.0 | 0.00 | 0.00 | 0.00 | 1018.0 | |
| 20260502060328 | 11 | 222 | 0.0 | 0.0 | 0.00 | 0.00 | 0.00 | 1018.1 | |
| 20260502054511 | 10 | 0 | 0.0 | 0.0 | 0.00 | 0.00 | 0.00 | 1018.0 | |
| 20260502052655 | 8 | 180 | 0.0 | 0.0 | 0.00 | 0.00 | 0.00 | 1018.1 | |
| 20260502050838 | 6 | 222 | 0.0 | 0.0 | 0.00 | 0.00 | 0.00 | 1018.2 | |
| 20260502045022 | 5 | 222 | 0.0 | 0.0 | 0.00 | 0.00 | 0.00 | 1018.1 | |
| 20260502043205 | 3 | 0 | 37.0 | 0.0 | 0.00 | 0.00 | 0.00 | 1018.1 | |
| 20260502041349 | 3 | 90 | 25.7 | 0.0 | 0.00 | 0.00 | 0.00 | 1018.1 | |
| 20260502035532 | 2 | 135 | 51.5 | 0.0 | 0.00 | 0.00 | 0.00 | 1018.3 | |
| 20260502033715 | 2 | 90 | 0.0 | 0.0 | 0.00 | 0.00 | 0.00 | 1018.4 | |
| 20260502031859 | 2 | 180 | 38.6 | 0.0 | 0.00 | 0.00 | 0.00 | 1018.3 | |
| 20260502030042 | 3 | 135 | 11.3 | 0.0 | 0.00 | 0.00 | 0.00 | 1018.4 | |
| 20260502024226 | 3 | 180 | 11.3 | 0.0 | 0.00 | 0.00 | 0.00 | 1018.4 | |
| 20260502022409 | 3 | 135 | 25.7 | 0.0 | 0.00 | 0.00 | 0.00 | 1018.7 | |
| 20260502014736 | 3 | 180 | 35.4 | 0.0 | 0.00 | 0.00 | 0.00 | 1018.6 | |
| 20260502012919 | 3 | 135 | 11.3 | 0.0 | 0.00 | 0.00 | 0.00 | 1018.7 | |
| 20260502011103 | 4 | 0 | 24.1 | 0.0 | 0.00 | 0.00 | 0.00 | 1018.8 | |
| 20260502005246 | 5 | 135 | 51.5 | 0.0 | 0.00 | 0.00 | 0.00 | 1018.9 | |
| 20260502003430 | 5 | 90 | 0.0 | 0.0 | 0.00 | 0.00 | 0.00 | 1019.0 | |
| 20260502001613 | 5 | 270 | 11.3 | 0.0 | 0.00 | 0.00 | 0.00 | 1019.1 | |
| 20260501235757 | 6 | 180 | 25.7 | 0.0 | 0.00 | 0.00 | 0.00 | 1019.2 | |
| 20260501233940 | 6 | 135 | 0.0 | 0.0 | 0.00 | 0.00 | 0.00 | 1019.1 | |
| 20260501230307 | 6 | 0 | 12.9 | 0.0 | 0.00 | 0.00 | 0.00 | 1019.2 | |
| 20260501224451 | 6 | 0 | 27.4 | 0.0 | 0.00 | 0.00 | 0.00 | 1019.4 | |
| 20260501222634 | 7 | 90 | 0.0 | 0.0 | 0.00 | 0.00 | 0.00 | 1019.4 | |
| 20260501220817 | 8 | 180 | 24.1 | 0.0 | 0.00 | 0.00 | 0.00 | 1019.5 | |
| 20260501215001 | 8 | 0 | 0.0 | 0.0 | 0.00 | 0.00 | 0.00 | 1019.4 | |
| 20260501213144 | 9 | 222 | 0.0 | 0.0 | 0.00 | 0.00 | 0.00 | 1019.4 | |
| 20260501211328 | 9 | 222 | 0.0 | 0.0 | 0.00 | 0.00 | 0.00 | 1019.4 | |
| 20260501205511 | 10 | 180 | 0.0 | 0.0 | 0.00 | 0.00 | 0.00 | 1019.3 | |
| 20260501203655 | 10 | 0 | 25.7 | 0.0 | 0.00 | 0.00 | 0.00 | 1019.2 | |
| 20260501201838 | 11 | 135 | 0.0 | 0.0 | 0.00 | 0.00 | 0.00 | 1019.2 | |
| 20260501200022 | 12 | 0 | 0.0 | 0.0 | 0.00 | 0.00 | 0.00 | 1019.3 | |
| 20260501194205 | 13 | 0 | 0.0 | 0.0 | 0.00 | 0.00 | 0.00 | 1019.3 | |
| 20260501192348 | 13 | 0 | 51.5 | 0.0 | 0.00 | 0.00 | 0.00 | 1019.2 | |
| 20260501190532 | 13 | 0 | 38.6 | 0.0 | 0.00 | 0.00 | 0.00 | 1019.1 | |
| 20260501184715 | 15 | 45 | 38.6 | 0.0 | 0.00 | 0.00 | 0.00 | 1019.1 | |
| 20260501182859 | 17 | 90 | 49.9 | 0.0 | 0.00 | 0.00 | 0.00 | 1019.0 | |
| 20260501181042 | 21 | 180 | 45.1 | 0.0 | 0.00 | 0.00 | 0.00 | 1018.8 | |
| 20260501175226 | 27 | 90 | 53.1 | 0.0 | 0.00 | 0.00 | 0.00 | 1018.8 | |
| 20260501173409 | 30 | 90 | 30.6 | 0.0 | 0.00 | 0.00 | 0.00 | 1018.6 | |
| 20260501171553 | 32 | 0 | 37.0 | 0.0 | 0.00 | 0.00 | 0.00 | 1018.6 | |
| 20260501165736 | 33 | 90 | 70.8 | 0.0 | 0.00 | 0.00 | 0.00 | 1018.7 | |
| 20260501163919 | 34 | 90 | 70.8 | 0.0 | 0.00 | 0.00 | 0.00 | 1018.8 | |
| 20260501162103 | 35 | 135 | 30.6 | 0.0 | 0.00 | 0.00 | 0.00 | 1018.8 | |
| 20260501160246 | 35 | 0 | 0.0 | 0.0 | 0.00 | 0.00 | 0.00 | 1018.8 | |
| 20260501154430 | 36 | 0 | 30.6 | 0.0 | 0.00 | 0.00 | 0.00 | 1019.0 | |
| 20260501152613 | 35 | 0 | 74.0 | 0.0 | 0.00 | 0.00 | 0.00 | 1019.2 | |
| 20260501150756 | 35 | 0 | 8.0 | 0.0 | 0.00 | 0.00 | 0.00 | 1019.3 | |
| 20260501144940 | 36 | 222 | 0.0 | 0.0 | 0.00 | 0.00 | 0.00 | 1019.4 | |
| 20260501143123 | 34 | 0 | 59.5 | 0.0 | 0.00 | 0.00 | 0.00 | 1019.5 |